Hourly Weather Muratbaevo

Today, 27 September, Monday

Time Temperature Precipitation Wind Pressure Humidity
00:00 +25°C° 0 mm 3 mps 715 mmHg 17%
01:00 +22°C° 0 mm 4 mps 715 mmHg 23%
02:00 +21°C° 0 mm 6 mps 715 mmHg 28%
03:00 +20°C° 0 mm 6 mps 716 mmHg 35%
04:00 +17°C° 0 mm 6 mps 717 mmHg 43%
05:00 +16°C° 0 mm 7 mps 718 mmHg 51%
06:00 +15°C° 0 mm 7 mps 720 mmHg 60%
07:00 +14°C° 0 mm 7 mps 721 mmHg 69%
08:00 +12°C° 0 mm 8 mps 722 mmHg 78%
09:00 +14°C° 0 mm 7 mps 723 mmHg 68%
10:00 +15°C° 0 mm 7 mps 724 mmHg 58%
11:00 +16°C° 0 mm 7 mps 725 mmHg 48%
12:00 +17°C° 0 mm 6 mps 725 mmHg 45%
13:00 +19°C° 0 mm 6 mps 725 mmHg 41%
14:00 +20°C° 0 mm 6 mps 725 mmHg 38%
15:00 +20°C° 0 mm 6 mps 725 mmHg 37%
16:00 +20°C° 0 mm 5 mps 725 mmHg 36%
17:00 +20°C° 0 mm 4 mps 725 mmHg 36%
18:00 +19°C° 0 mm 3 mps 725 mmHg 40%
19:00 +18°C° 0 mm 2 mps 725 mmHg 44%
20:00 +16°C° 0 mm 1 mps 724 mmHg 48%
21:00 +16°C° 0 mm 1 mps 724 mmHg 49%
22:00 +15°C° 0 mm 1 mps 724 mmHg 50%
23:00 +15°C° 0 mm 1 mps 724 mmHg 51%

Tomorrow, 28 September, Tuesday

Time Temperature Precipitation Wind Pressure Humidity
00:00 +15°C° 0 mm 1 mps 723 mmHg 52%
01:00 +15°C° 0 mm 1 mps 723 mmHg 53%
02:00 +14°C° 0 mm 2 mps 723 mmHg 53%
03:00 +14°C° 0 mm 2 mps 723 mmHg 54%
04:00 +14°C° 0 mm 2 mps 723 mmHg 54%
05:00 +14°C° 0 mm 2 mps 722 mmHg 55%
06:00 +15°C° 0 mm 2 mps 722 mmHg 51%
07:00 +16°C° 0 mm 1 mps 723 mmHg 47%
08:00 +18°C° 0 mm 1 mps 723 mmHg 43%
09:00 +20°C° 0 mm 1 mps 723 mmHg 39%
10:00 +20°C° 0 mm 2 mps 723 mmHg 35%
11:00 +22°C° 0 mm 3 mps 722 mmHg 30%
12:00 +22°C° 0 mm 4 mps 722 mmHg 28%
13:00 +23°C° 0 mm 4 mps 722 mmHg 27%
14:00 +25°C° 0 mm 5 mps 722 mmHg 25%
15:00 +23°C° 0 mm 5 mps 722 mmHg 25%
16:00 +23°C° 0 mm 4 mps 722 mmHg 26%
17:00 +23°C° 0 mm 4 mps 722 mmHg 26%
18:00 +21°C° 0 mm 3 mps 722 mmHg 30%
19:00 +20°C° 0 mm 2 mps 722 mmHg 33%
20:00 +19°C° 0 mm 1 mps 721 mmHg 36%
21:00 +19°C° 0 mm 1 mps 721 mmHg 37%
22:00 +18°C° 0 mm 1 mps 721 mmHg 38%
23:00 +18°C° 0 mm 1 mps 721 mmHg 39%

Day after tomorrow, 29 September, Wednesday

Time Temperature Precipitation Wind Pressure Humidity
00:00 +16°C° 0 mm 1 mps 721 mmHg 41%
01:00 +16°C° 0 mm 1 mps 721 mmHg 43%
02:00 +16°C° 0 mm 1 mps 721 mmHg 45%
03:00 +15°C° 0 mm 2 mps 721 mmHg 48%
04:00 +15°C° 0 mm 2 mps 722 mmHg 51%
05:00 +15°C° 0 mm 2 mps 722 mmHg 54%
06:00 +16°C° 0 mm 2 mps 722 mmHg 52%
07:00 +17°C° 0 mm 2 mps 722 mmHg 50%
08:00 +18°C° 0 mm 3 mps 723 mmHg 47%
09:00 +19°C° 0 mm 3 mps 723 mmHg 41%
10:00 +20°C° 0 mm 4 mps 723 mmHg 34%
11:00 +21°C° 0 mm 5 mps 724 mmHg 28%
12:00 +21°C° 0 mm 6 mps 724 mmHg 27%
13:00 +22°C° 0 mm 6 mps 724 mmHg 25%
14:00 +22°C° 0 mm 6 mps 724 mmHg 24%
15:00 +22°C° 0 mm 6 mps 724 mmHg 26%
16:00 +21°C° 0 mm 6 mps 724 mmHg 27%
17:00 +20°C° 0 mm 5 mps 724 mmHg 29%
18:00 +19°C° 0 mm 4 mps 724 mmHg 33%
19:00 +18°C° 0 mm 3 mps 725 mmHg 36%
20:00 +16°C° 0 mm 2 mps 725 mmHg 40%
21:00 +16°C° 0 mm 1 mps 725 mmHg 41%
22:00 +15°C° 0 mm 1 mps 725 mmHg 42%
23:00 +15°C° 0 mm 1 mps 725 mmHg 43%

30 September, Thursday

Time Temperature Precipitation Wind Pressure Humidity
00:00 +14°C° 0 mm 1 mps 725 mmHg 44%
01:00 +14°C° 0 mm 1 mps 725 mmHg 44%
02:00 +14°C° 0 mm 1 mps 724 mmHg 45%
03:00 +14°C° 0 mm 1 mps 724 mmHg 45%
04:00 +13°C° 0 mm 1 mps 725 mmHg 46%
05:00 +13°C° 0 mm 1 mps 725 mmHg 47%
06:00 +14°C° 0 mm 2 mps 725 mmHg 44%
07:00 +15°C° 0 mm 2 mps 725 mmHg 42%
08:00 +16°C° 0 mm 2 mps 725 mmHg 39%
09:00 +17°C° 0 mm 3 mps 725 mmHg 36%
10:00 +19°C° 0 mm 3 mps 726 mmHg 33%
11:00 +20°C° 0 mm 4 mps 726 mmHg 29%
12:00 +20°C° 0 mm 5 mps 725 mmHg 28%
13:00 +21°C° 0 mm 5 mps 725 mmHg 27%
14:00 +21°C° 0 mm 6 mps 725 mmHg 25%
15:00 +21°C° 0 mm 6 mps 725 mmHg 25%
16:00 +20°C° 0 mm 5 mps 725 mmHg 24%
17:00 +19°C° 0 mm 5 mps 725 mmHg 24%
18:00 +17°C° 0 mm 4 mps 725 mmHg 29%
19:00 +14°C° 0 mm 4 mps 725 mmHg 33%
20:00 +12°C° 0 mm 3 mps 725 mmHg 37%
21:00 +12°C° 0 mm 3 mps 725 mmHg 39%
22:00 +12°C° 0 mm 2 mps 725 mmHg 40%
23:00 +12°C° 0 mm 2 mps 725 mmHg 41%

1 October, Friday

Time Temperature Precipitation Wind Pressure Humidity
00:00 +10°C° 0 mm 2 mps 726 mmHg 42%
01:00 +10°C° 0 mm 2 mps 726 mmHg 43%
02:00 +11°C° 0 mm 1 mps 726 mmHg 43%
03:00 +10°C° 0 mm 1 mps 726 mmHg 44%
04:00 +10°C° 0 mm 1 mps 726 mmHg 45%
05:00 +10°C° 0 mm 1 mps 726 mmHg 46%
06:00 +10°C° 0 mm 1 mps 727 mmHg 46%
07:00 +11°C° 0 mm 1 mps 727 mmHg 45%
08:00 +11°C° 0 mm 1 mps 727 mmHg 45%
09:00 +12°C° 0 mm 2 mps 727 mmHg 41%
10:00 +13°C° 0 mm 2 mps 727 mmHg 37%
11:00 +14°C° 0 mm 3 mps 728 mmHg 33%
12:00 +14°C° 0 mm 3 mps 727 mmHg 30%
13:00 +15°C° 0 mm 4 mps 727 mmHg 26%
14:00 +15°C° 0 mm 5 mps 727 mmHg 23%
15:00 +15°C° 0 mm 5 mps 727 mmHg 24%
16:00 +14°C° 0 mm 5 mps 728 mmHg 25%
17:00 +14°C° 0 mm 5 mps 728 mmHg 26%
18:00 +12°C° 0 mm 5 mps 728 mmHg 31%
19:00 +10°C° 0 mm 4 mps 729 mmHg 37%
20:00 +8°C° 0 mm 4 mps 729 mmHg 42%
21:00 +7°C° 0 mm 4 mps 729 mmHg 45%
22:00 +6°C° 0 mm 4 mps 729 mmHg 48%
23:00 +7°C° 0 mm 3 mps 730 mmHg 52%

2 October, Saturday

Time Temperature Precipitation Wind Pressure Humidity
00:00 +7°C° 0 mm 3 mps 730 mmHg 54%
01:00 +5°C° 0 mm 3 mps 730 mmHg 55%
02:00 +5°C° 0 mm 3 mps 730 mmHg 57%
03:00 +4°C° 0 mm 3 mps 730 mmHg 58%
04:00 +4°C° 0 mm 3 mps 731 mmHg 58%
05:00 +4°C° 0 mm 3 mps 731 mmHg 58%
06:00 +5°C° 0 mm 3 mps 731 mmHg 54%
07:00 +6°C° 0 mm 2 mps 731 mmHg 50%
08:00 +7°C° 0 mm 2 mps 732 mmHg 46%
09:00 +9°C° 0 mm 2 mps 732 mmHg 41%
10:00 +10°C° 0 mm 2 mps 732 mmHg 37%
11:00 +13°C° 0 mm 1 mps 732 mmHg 32%
12:00 +13°C° 0 mm 1 mps 732 mmHg 30%
13:00 +14°C° 0 mm 2 mps 731 mmHg 27%
14:00 +15°C° 0 mm 2 mps 731 mmHg 25%
15:00 +15°C° 0 mm 2 mps 731 mmHg 26%
16:00 +14°C° 0 mm 3 mps 731 mmHg 27%
17:00 +13°C° 0 mm 4 mps 731 mmHg 27%
18:00 +12°C° 0 mm 4 mps 731 mmHg 31%
19:00 +9°C° 0 mm 5 mps 732 mmHg 34%
20:00 +8°C° 0 mm 5 mps 732 mmHg 38%
21:00 +8°C° 0 mm 5 mps 732 mmHg 39%
22:00 +7°C° 0 mm 5 mps 732 mmHg 40%
23:00 +7°C° 0 mm 5 mps 732 mmHg 41%
Show more

We Need Your Consent

Meteoprog and our Service Providers may store and access personal data such as cookies, device identifiers or other similar technologies on your device and process such data to personalise content and ads, as well as provide social media features and to analyse the traffic.

  • Store and/or access information on your device

    Cookies, device identifiers or other information can be stored or accessed on your device for the purposes indicated above.

  • Personalised ads and content, ad and content measurement, audience insights, and products development

    Ads and content can be personalised based on a profile. More data can be added to better personalise ads and content. Ad and content performance can be measured. Insights about the audience who saw the ads and content can be derived. Such data can be used to develop or improve user’s experience, systems and software.

By clicking ‘I Agree’ you will allow the use of indicated cookies, device identifiers, web beacons or other similar technologies. Your settings can be changed in the browser on your device.

For certain purposes, legitimate interests may be relied on, rather than consent. You can read more about this in our Privacy and Cookie Policy.